Weather in Trostianets

Ukraine / Vinnytsia Region     48°30′45″N   29°13′39″E
temp.,
°C
wind,
m/s
gust,
m/s
humid.,
%
clouds,
%
prec.,
mm/h
press.,
hPa
HPBL,
m
13 june, sun
sun1300:00+15w228862 0.0 101115
03:00+14sw22875 0.0 100916
06:00+14s379150 0.6 1007118
09:00+19ssw5878100 0.9 1006523
12:00+17nnw7976100 2.0 10081010
15:00+15nw61084100 2.1 1009832
18:00+13nw61191100 2.9 1010654
21:00+13nw3791100 2.9 1011230
14 june, mon
mon1400:00+11nw51192100 0.0 1012344
03:00+10nw51096100 0.0 1012328
06:00+10nw5997100 0.0 1012307
09:00+12nnw5791100 0.0 1013435
12:00+14n5989100 0.9 1013715
15:00+12nnw51093100 1.8 1014644
18:00+12nnw61195100 0.5 1013605
21:00+12nnw51098100 0.7 1013367
15 june, tue
tue1500:00+13nnw479894 0.1 1014203
03:00+13nnw3798100 0.2 1014178
06:00+13n4899100 0.0 1014195
09:00+18n568998 0.0 1014489
12:00+21n567432 0.3 10141104
15:00+22n677332 2.8 10131122
18:00+21n698396 2.5 1012911
21:00+17n51291100 5.0 1012382
16 june, wed
wed1600:00+16n614935 0.0 1012337
03:00+14n715934 0.0 1012391
06:00+13nnw615911 0.0 1013381
09:00+17n814771 0.0 1013661
12:00+21n896725 0.0 10141249
15:00+21n697187 0.3 10131401
18:00+22nne6117174 0.4 10131401
21:00+18n41088100 0.9 1015211
17 june, thu
thu1700:00+16n6139395 0.0 1016375
03:00+16n6139592 0.1 1016362
06:00+15n5129755 0.2 1017399
09:00+19nne7108563 0.3 1017697
12:00+21nne7107988 0.5 10181021
15:00+22ne7108185 2.7 10171093
18:00+21ne6108748 3.2 1018880
21:00+18ne61394100 6.9 1018486